星链-2333 (STARLINK-2333 )

导读

STARLINK-2333是美国SpaceX公司星链星座中的一颗低轨互联网卫星,于2021年3月14日发射升空。星链计划旨在构建全球覆盖的巨型低轨卫星互联网星座,为全球偏远地区提供高速低延迟宽带服务。作为星链星座V1.5批次的组网卫星,它运行在近地轨道,承担着扩展全球卫星互联网覆盖范围的任务,目前已正常在轨服役,助力星链星座实现全球互联的目标。

Basic Information
目录编号:
47877
目录名称:
STARLINK-2333
国际标识:
2021-021T
轨道中心:
EARTH
卫星名称:
星链-2333
卫星全名:
星链-2333 (STARLINK-2333 )
卫星状态:
已陨落 最后检测时间 2025-02-26
发射日期:
2021-03-14 UTC
国别 :
美国 (US)
星等 :
--
Orbit Information
数据来源 国际轨道数据
星历时间: 2025-02-26T23:38:51+0800
轨道信息已过期477天
半长轴: 6532.746km
偏心率: 0.0002264
轨道倾角: 53.031°
近地点辐角 347.088°
升交点赤经 120.499°
平近点角 152.413°
近地点: 153.131km
远地点: 156.091km
周期: 87.580分钟
每日圈数: 16.442169
Detailed Information
固有亮度:
5
最大亮度:
2.5
卫星平台:
Starlink V1.0
覆盖范围:
全球
运营商:
太空探索技术公司
运营商所在国:
美国
制造商(研发单位):
太空探索技术公司
制造商所在国:
美国
使用方式:
暂无
Satellite Introduction
星链(Starlink)计划是由太空探索技术公司(SpaceX)提出的一个巨型低轨卫星互联网星座项目,计划在2019年至2024年间在太空搭建由约1.2万颗卫星组成的“星链”网络,其中1584颗将部署在地球上空550千米处的近地轨道,并从2020年开始工作。该卫星仍在工作。